Volver al catálogo

BEIDOU 3M9

ActivoNavegaciónMEO
NORAD 43581·PAYLOAD·🇨🇳 China

Lanzado Jul 29, 2018 desde Xichang Satellite Launch Center

Loading…

Próximos Pases (próximas 24 horas)

TLE

ActualizadoSource: CelesTrak SupGP

Época: Sep 14, 2026, 00:00 UTC

1 43581C 18062A   26257.00000000  .00000000  00000+0  00000+0 0  2575
2 43581  54.0824 179.2869 0003860 316.0295 241.8490  1.86228825    12

Sigue BEIDOU 3M9 en tiempo real con AllMySat

Download on the App Store